Multibeam Report for TN259


Ship Name: Thomas G. Thompson
Chief Scientist: Johnston, Shaun
Scripps Institution of Oceanography
Source Organization: UNOLS R2R
Start Date: 2010-11-23
End Date: 2010-12-22


View ISO Metadata

Visit the full NCEI Bathymetry Viewer


Multibeam Bathymetry

Cruise Details

Project: EXperiment on Internal Tide Scattering (EXITS)
Instrument: Simrad EM302

Data Quality

Number of Files: 146
Number of Records: 31324
BATHYMETRY DATA Quantity Percentage
Number of Beams 13531968 100%
Number of Good Beams 11452982 84.64%
Number of Zero Beams 0 0%
Number of Flagged Beams 2078986 15.36%
AMPLITUDE DATA Quantity Percentage
Number of Beams 13531968 100%
Number of Good Beams 11452982 84.64%
Number of Zero Beams 0 0%
Number of Flagged Beams 2078986 15.36%
SIDESCAN DATA Quantity Percentage
Number of Pixels 32075776 100%
Number of Good Pixels 7199996 22.45%
Number of Zero Pixels 0 0%
Number of Flagged Pixels 24875780 77.55%

Navigation Totals

Total Time: 64.9565 hours
Total Track Length: 400.7823 km
Average Speed: 6.17 km/hr (3.3315 knots)

Cruise Bounds

Northern Extent: 18.1752
Southern Extent: 16.4699
Western Extent: -169.0509
Eastern Extent: -167.7063

Limits

Minimum Sonar Depth 4.0092 Maximum Sonar Depth 7.7665
Minimum Altitude 1727.4065 Maximum Altitude 6022.8677
Minimum Depth 1599.9955 Maximum Depth 6486.0356
Minimum Amplitude 0 Maximum Amplitude 41.4
Minimum Sidescan 0 Maximum Sidescan 30.03

File Information

Full Resolution Bathymetry as collected (raw): 145

Files File Size Description
0000_20101126_021730.all.mb58.gz 25.11MB Kongsberg multibeam vendor format
0001_20101126_024815.all.mb58.gz 21.42MB Kongsberg multibeam vendor format
0002_20101126_051109.all.mb58.gz 23.63MB Kongsberg multibeam vendor format
0003_20101126_054109.all.mb58.gz 23.96MB Kongsberg multibeam vendor format
0004_20101126_061113.all.mb58.gz 24.11MB Kongsberg multibeam vendor format
0005_20101126_064114.all.mb58.gz 8.65MB Kongsberg multibeam vendor format
0006_20101128_003433.all.mb58.gz 24.16MB Kongsberg multibeam vendor format
0007_20101128_010434.all.mb58.gz 23.98MB Kongsberg multibeam vendor format
0008_20101128_013435.all.mb58.gz 23.42MB Kongsberg multibeam vendor format
0009_20101128_020436.all.mb58.gz 23.47MB Kongsberg multibeam vendor format
0010_20101128_023432.all.mb58.gz 24.04MB Kongsberg multibeam vendor format
0011_20101128_030436.all.mb58.gz 25.42MB Kongsberg multibeam vendor format
0012_20101128_033433.all.mb58.gz 24.34MB Kongsberg multibeam vendor format
0013_20101128_040433.all.mb58.gz 26.59MB Kongsberg multibeam vendor format
0014_20101128_043434.all.mb58.gz 0.73MB Kongsberg multibeam vendor format
0015_20101128_045725.all.mb58.gz 28.19MB Kongsberg multibeam vendor format
0016_20101128_052720.all.mb58.gz 28.13MB Kongsberg multibeam vendor format
0017_20101128_055721.all.mb58.gz 27.39MB Kongsberg multibeam vendor format
0018_20101128_062721.all.mb58.gz 25.80MB Kongsberg multibeam vendor format
0019_20101128_065721.all.mb58.gz 25.51MB Kongsberg multibeam vendor format
0020_20101128_072720.all.mb58.gz 25.48MB Kongsberg multibeam vendor format
0021_20101128_075723.all.mb58.gz 3.51MB Kongsberg multibeam vendor format
0022_20101130_174637.all.mb58.gz 25.80MB Kongsberg multibeam vendor format
0023_20101130_181636.all.mb58.gz 25.68MB Kongsberg multibeam vendor format
0024_20101130_184636.all.mb58.gz 25.90MB Kongsberg multibeam vendor format
0025_20101130_191639.all.mb58.gz 25.02MB Kongsberg multibeam vendor format
0026_20101130_194634.all.mb58.gz 25.25MB Kongsberg multibeam vendor format
0027_20101130_201635.all.mb58.gz 25.17MB Kongsberg multibeam vendor format
0028_20101130_204636.all.mb58.gz 25.35MB Kongsberg multibeam vendor format
0029_20101130_211637.all.mb58.gz 25.33MB Kongsberg multibeam vendor format
0030_20101130_214639.all.mb58.gz 24.76MB Kongsberg multibeam vendor format
0031_20101130_221633.all.mb58.gz 24.80MB Kongsberg multibeam vendor format
0032_20101130_224634.all.mb58.gz 24.95MB Kongsberg multibeam vendor format
0033_20101130_231635.all.mb58.gz 24.89MB Kongsberg multibeam vendor format
0034_20101130_234637.all.mb58.gz 25.14MB Kongsberg multibeam vendor format
0035_20101201_001638.all.mb58.gz 25.36MB Kongsberg multibeam vendor format
0036_20101201_004639.all.mb58.gz 9.95MB Kongsberg multibeam vendor format
0037_20101202_012506.all.mb58.gz 26.06MB Kongsberg multibeam vendor format
0038_20101202_015505.all.mb58.gz 14.42MB Kongsberg multibeam vendor format
0039_20101202_022140.all.mb58.gz 24.93MB Kongsberg multibeam vendor format
0040_20101202_025136.all.mb58.gz 25.20MB Kongsberg multibeam vendor format
0041_20101202_032138.all.mb58.gz 3.90MB Kongsberg multibeam vendor format
0042_20101203_043038.all.mb58.gz 24.67MB Kongsberg multibeam vendor format
0043_20101203_050033.all.mb58.gz 27.21MB Kongsberg multibeam vendor format
0044_20101203_053034.all.mb58.gz 28.32MB Kongsberg multibeam vendor format
0045_20101203_060038.all.mb58.gz 7.15MB Kongsberg multibeam vendor format
0046_20101204_194908.all.mb58.gz 20.47MB Kongsberg multibeam vendor format
0047_20101204_201332.all.mb58.gz 23.83MB Kongsberg multibeam vendor format
0048_20101204_204333.all.mb58.gz 23.91MB Kongsberg multibeam vendor format
0049_20101204_211341.all.mb58.gz 15.09MB Kongsberg multibeam vendor format
0050_20101207_093319.all.mb58.gz 23.24MB Kongsberg multibeam vendor format
0051_20101207_100323.all.mb58.gz 23.16MB Kongsberg multibeam vendor format
0052_20101207_103320.all.mb58.gz 22.84MB Kongsberg multibeam vendor format
0053_20101207_110317.all.mb58.gz 22.81MB Kongsberg multibeam vendor format
0054_20101207_113321.all.mb58.gz 22.84MB Kongsberg multibeam vendor format
0055_20101207_120318.all.mb58.gz 22.87MB Kongsberg multibeam vendor format
0056_20101207_123323.all.mb58.gz 22.83MB Kongsberg multibeam vendor format
0057_20101207_130320.all.mb58.gz 23.24MB Kongsberg multibeam vendor format
0058_20101207_133324.all.mb58.gz 22.91MB Kongsberg multibeam vendor format
0059_20101207_140320.all.mb58.gz 22.91MB Kongsberg multibeam vendor format
0060_20101207_143324.all.mb58.gz 22.81MB Kongsberg multibeam vendor format
0061_20101207_150321.all.mb58.gz 22.82MB Kongsberg multibeam vendor format
0062_20101207_153317.all.mb58.gz 22.86MB Kongsberg multibeam vendor format
0063_20101207_160321.all.mb58.gz 22.83MB Kongsberg multibeam vendor format
0064_20101207_163317.all.mb58.gz 22.97MB Kongsberg multibeam vendor format
0065_20101207_170320.all.mb58.gz 3.97MB Kongsberg multibeam vendor format
0066_20101209_104241.all.mb58.gz 23.32MB Kongsberg multibeam vendor format
0067_20101209_111241.all.mb58.gz 22.99MB Kongsberg multibeam vendor format
0068_20101209_114243.all.mb58.gz 22.96MB Kongsberg multibeam vendor format
0069_20101209_121244.all.mb58.gz 22.82MB Kongsberg multibeam vendor format
0070_20101209_124238.all.mb58.gz 22.93MB Kongsberg multibeam vendor format
0071_20101209_131240.all.mb58.gz 22.98MB Kongsberg multibeam vendor format
0072_20101209_134241.all.mb58.gz 22.90MB Kongsberg multibeam vendor format
0073_20101209_141243.all.mb58.gz 10.39MB Kongsberg multibeam vendor format
0074_20101211_062713.all.mb58.gz 12.00MB Kongsberg multibeam vendor format
0075_20101212_222553.all.mb58.gz 6.81MB Kongsberg multibeam vendor format
0076_20101212_223437.all.mb58.gz 24.28MB Kongsberg multibeam vendor format
0077_20101212_230430.all.mb58.gz 23.40MB Kongsberg multibeam vendor format
0078_20101212_233432.all.mb58.gz 23.22MB Kongsberg multibeam vendor format
0079_20101213_000434.all.mb58.gz 22.94MB Kongsberg multibeam vendor format
0080_20101213_003436.all.mb58.gz 14.58MB Kongsberg multibeam vendor format
0081_20101216_002457.all.mb58.gz 21.70MB Kongsberg multibeam vendor format
0082_20101216_005500.all.mb58.gz 20.80MB Kongsberg multibeam vendor format
0083_20101216_012503.all.mb58.gz 5.36MB Kongsberg multibeam vendor format
0084_20101216_231832.all.mb58.gz 23.13MB Kongsberg multibeam vendor format
0085_20101216_234826.all.mb58.gz 23.23MB Kongsberg multibeam vendor format
0086_20101217_001832.all.mb58.gz 3.70MB Kongsberg multibeam vendor format
0087_20101218_025637.all.mb58.gz 24.01MB Kongsberg multibeam vendor format
0088_20101218_032631.all.mb58.gz 24.26MB Kongsberg multibeam vendor format
0089_20101218_035634.all.mb58.gz 1.03MB Kongsberg multibeam vendor format
0090_20101219_040728.all.mb58.gz 23.80MB Kongsberg multibeam vendor format
0091_20101219_043731.all.mb58.gz 23.45MB Kongsberg multibeam vendor format
0092_20101219_050727.all.mb58.gz 23.58MB Kongsberg multibeam vendor format
0093_20101219_053730.all.mb58.gz 23.54MB Kongsberg multibeam vendor format
0094_20101219_060733.all.mb58.gz 23.52MB Kongsberg multibeam vendor format
0095_20101219_063728.all.mb58.gz 23.53MB Kongsberg multibeam vendor format
0096_20101219_070732.all.mb58.gz 23.33MB Kongsberg multibeam vendor format
0097_20101219_073727.all.mb58.gz 23.26MB Kongsberg multibeam vendor format
0098_20101219_080730.all.mb58.gz 23.12MB Kongsberg multibeam vendor format
0099_20101219_083726.all.mb58.gz 23.30MB Kongsberg multibeam vendor format
0100_20101219_090729.all.mb58.gz 23.42MB Kongsberg multibeam vendor format
0101_20101219_093732.all.mb58.gz 23.56MB Kongsberg multibeam vendor format
0102_20101219_100727.all.mb58.gz 23.67MB Kongsberg multibeam vendor format
0103_20101219_103730.all.mb58.gz 23.23MB Kongsberg multibeam vendor format
0104_20101219_110725.all.mb58.gz 23.23MB Kongsberg multibeam vendor format
0105_20101219_113729.all.mb58.gz 23.74MB Kongsberg multibeam vendor format
0106_20101219_120732.all.mb58.gz 23.46MB Kongsberg multibeam vendor format
0107_20101219_123727.all.mb58.gz 23.15MB Kongsberg multibeam vendor format
0108_20101219_130730.all.mb58.gz 23.03MB Kongsberg multibeam vendor format
0109_20101219_133726.all.mb58.gz 23.08MB Kongsberg multibeam vendor format
0110_20101219_140729.all.mb58.gz 23.15MB Kongsberg multibeam vendor format
0111_20101219_143732.all.mb58.gz 22.93MB Kongsberg multibeam vendor format
0112_20101219_150727.all.mb58.gz 23.06MB Kongsberg multibeam vendor format
0113_20101219_153730.all.mb58.gz 22.91MB Kongsberg multibeam vendor format
0114_20101219_160726.all.mb58.gz 23.11MB Kongsberg multibeam vendor format
0115_20101219_163729.all.mb58.gz 23.03MB Kongsberg multibeam vendor format
0116_20101219_170732.all.mb58.gz 22.97MB Kongsberg multibeam vendor format
0117_20101219_173728.all.mb58.gz 23.14MB Kongsberg multibeam vendor format
0118_20101219_180731.all.mb58.gz 23.43MB Kongsberg multibeam vendor format
0119_20101219_183726.all.mb58.gz 23.32MB Kongsberg multibeam vendor format
0120_20101219_190729.all.mb58.gz 23.34MB Kongsberg multibeam vendor format
0121_20101219_193732.all.mb58.gz 23.09MB Kongsberg multibeam vendor format
0122_20101219_200728.all.mb58.gz 23.20MB Kongsberg multibeam vendor format
0123_20101219_203731.all.mb58.gz 23.06MB Kongsberg multibeam vendor format
0124_20101219_210726.all.mb58.gz 23.03MB Kongsberg multibeam vendor format
0125_20101219_213729.all.mb58.gz 22.94MB Kongsberg multibeam vendor format
0126_20101219_220733.all.mb58.gz 22.74MB Kongsberg multibeam vendor format
0127_20101219_223728.all.mb58.gz 22.76MB Kongsberg multibeam vendor format
0128_20101219_230731.all.mb58.gz 22.73MB Kongsberg multibeam vendor format
0129_20101219_233727.all.mb58.gz 22.82MB Kongsberg multibeam vendor format
0130_20101220_000730.all.mb58.gz 22.84MB Kongsberg multibeam vendor format
0131_20101220_003733.all.mb58.gz 22.91MB Kongsberg multibeam vendor format
0132_20101220_010728.all.mb58.gz 22.96MB Kongsberg multibeam vendor format
0133_20101220_013732.all.mb58.gz 22.96MB Kongsberg multibeam vendor format
0134_20101220_020727.all.mb58.gz 6.74MB Kongsberg multibeam vendor format
0135_20101220_041920.all.mb58.gz 23.48MB Kongsberg multibeam vendor format
0136_20101220_044921.all.mb58.gz 23.53MB Kongsberg multibeam vendor format
0137_20101220_051918.all.mb58.gz 23.63MB Kongsberg multibeam vendor format
0138_20101220_054919.all.mb58.gz 24.21MB Kongsberg multibeam vendor format
0139_20101220_061918.all.mb58.gz 32.93MB Kongsberg multibeam vendor format
0140_20101220_064921.all.mb58.gz 24.64MB Kongsberg multibeam vendor format
0141_20101220_071919.all.mb58.gz 23.23MB Kongsberg multibeam vendor format
0142_20101220_074925.all.mb58.gz 22.88MB Kongsberg multibeam vendor format
0143_20101220_081922.all.mb58.gz 23.32MB Kongsberg multibeam vendor format
0144_20101220_084925.all.mb58.gz 8.02MB Kongsberg multibeam vendor format

Metadata Files: 1

Files File Size Description
TN259_Multibeam.xml NGDC created ISO metadata